This is the latest recevied weather packets stored in our database for station/object N2PPN. If no packets are shown the sender has not sent any weather packets the latest 10 day(s).
| Time | Temp. | Humidity | Pressure | Rain* | Wind** | Luminosity | Snow |
|---|---|---|---|---|---|---|---|
| 1777401419 | 16.67° C | 46% | 1023.7 hPa | 0 mm | - | 339 W/m² | - |
| 1777401114 | 16.67° C | 48% | 1023.7 hPa | 0 mm | - | 331 W/m² | - |
| 1777400810 | 16.67° C | 47% | 1023.7 hPa | 0 mm | - | 334 W/m² | - |
| 1777400507 | 16.67° C | 46% | 1024 hPa | 0 mm | - | 342 W/m² | - |
| 1777400204 | 16.67° C | 48% | 1024.1 hPa | 0 mm | - | 323 W/m² | - |
| 1777399900 | 16.67° C | 47% | 1024 hPa | 0 mm | - | 349 W/m² | - |
| 1777399597 | 16.67° C | 46% | 1023.9 hPa | 0 mm | - | 354 W/m² | - |
| 1777399294 | 16.67° C | 45% | 1024.1 hPa | 0 mm | - | 357 W/m² | - |
| 1777398993 | 17.22° C | 45% | 1023.9 hPa | 0 mm | - | 359 W/m² | - |
| 1777398689 | 16.67° C | 45% | 1024 hPa | 0 mm | - | 358 W/m² | - |
| 1777398386 | 16.67° C | 46% | 1023.9 hPa | 0 mm | - | 393 W/m² | - |
| 1777398082 | 17.22° C | 46% | 1024.1 hPa | 0 mm | - | 439 W/m² | - |
| 1777397779 | 17.22° C | 46% | 1024.2 hPa | 0 mm | - | 485 W/m² | - |
| 1777397474 | 16.67° C | 46% | 1024.2 hPa | 0 mm | - | 517 W/m² | - |
| 1777397171 | 16.67° C | 45% | 1024.1 hPa | 0 mm | - | 449 W/m² | - |
| 1777396868 | 16.67° C | 46% | 1024.2 hPa | 0 mm | - | 468 W/m² | - |
| 1777396564 | 16.67° C | 47% | 1024.3 hPa | 0 mm | - | 435 W/m² | - |
| 1777396262 | 16.67° C | 44% | 1024.2 hPa | 0 mm | - | 508 W/m² | - |
| 1777395957 | 16.67° C | 46% | 1024.3 hPa | 0 mm | - | 404 W/m² | - |
| 1777395652 | 17.22° C | 45% | 1024.3 hPa | 0 mm | - | 506 W/m² | - |
| 1777395349 | 16.67° C | 46% | 1024.5 hPa | 0 mm | - | 536 W/m² | - |
| 1777395047 | 17.22° C | 45% | 1024.5 hPa | 0 mm | - | 588 W/m² | - |
| 1777394743 | 17.22° C | 45% | 1024.5 hPa | 0 mm | - | 490 W/m² | - |
| 1777394439 | 16.67° C | 46% | 1024.5 hPa | 0 mm | - | 537 W/m² | - |
| 1777394136 | 16.67° C | 46% | 1024.6 hPa | 0 mm | - | 524 W/m² | - |
* Rain latest hour (hover to see other rain measurements)
** Current wind speed in m/s (hover to see current wind gust speed)